Погода в Доманичах

Россия / Брянская область     53°00′01″N   33°25′34″E
темп.,
°C
ветер,
м/с
пор.,
м/с
влажн.,
%
обл.,
%
осадки,
мм/ч
давл.,
гПа
погр.,
м
17 апреля, сб
сб1700:00+6вюв35905 0.0 101688
03:00+5вюв35935 0.1 101791
06:00+4вюв24945 0.0 101879
09:00+9вюв237746 0.0 1018465
12:00+11сз2263100 0.0 1017967
15:00+8ю4494100 5.7 1017295
18:00+6ююз6893100 8.9 1016449
21:00+6ююв5791100 9.6 1016783
18 апреля, вс
вс1800:00+5вюв369385 0.0 1017330
03:00+4в369614 0.1 1018159
06:00+4всв3695100 0.0 1018245
09:00+7в577356 0.1 1018873
12:00+10в686185 0.2 10171574
15:00+8в7975100 0.8 10181071
18:00+6всв6990100 1.9 1018981
21:00+6всв61190100 5.9 10181053
19 апреля, пн
пн1900:00+6св6109199 1.1 1018691
03:00+6всв6119180 1.6 1017548
06:00+5св61293100 1.4 1017691
09:00+6в5995100 2.6 1017819
12:00+7в478783 1.2 1017718
15:00+9вюв587592 2.5 10161141
18:00+9вюв467896 1.6 1015353
21:00+7всв4794100 2.5 1015242
20 апреля, вт
вт2000:00+7в3696100 0.6 1014178
03:00+7вюв41096100 1.1 1013403
06:00+7в51195100 0.7 1012502
09:00+7всв61293100 1.3 1009768
12:00+6всв71393100 1.1 1006709
15:00+6св81594100 5.0 1001912
18:00+6св81594100 10.7 9941081
21:00+8юв6119399 12.8 992480
21 апреля, ср
ср2100:00+7ююв61094100 0.5 993573
03:00+3юз6997100 2.0 996480
06:00+3юз71497100 1.1 999654
09:00+5юз81388100 1.2 1002938
12:00+8юз8127695 0.2 10051370
15:00+9юз81269100 0.4 10081830
18:00+10ююз7127091 0.2 10091240
21:00+7ю5138684 0.5 1010333